Find Starlink 2314

NORAD ID: 47788 Int'l Des: 2021-018 Owner: SPXS Country: US Constellation: starlink operational
LEOCIRCULAR

当前视图

正在加载3D地球...

About Starlink 2314

Starlink 2314 (NORAD 47788) is a starlink constellation satellite (v1.0) launched Mar 11, 2021 by SPXS of US. It operates in LEO, CIRCULAR orbit with a mass of 260.00 kg.

即将过境

Passes for default location (London). Set your location on the main map for personalized predictions.

高度历史

Loading altitude history...

两行轨道根数

1 47788U 21018B 26265.55736998 .00053047 00000-0 95580-3 0 9998
2 47788 53.1533 11.9671 0002216 349.8261 10.2703 15.49294800307392
Epoch: Sep 22, 2026 • Age: 12 hours

当前状态

高度 423.8 km
远地点 / 近地点 N/A
速度 7.66 km/s
星下点 -14.18°S, 177.36°W
发射日期 Mar 11, 2021
运行时间 5.5 years
类型 internet

技术详情

分类 Payload
质量 260.00 kg
干质量 248.00 kg
长度 0.20 m
跨度 9.00 m
形状 ? Box + pan
制造商 SPXS
平台类型 Starlink
阶段状态 In Orbit
所有者/国家 SPXS/US

Most Searched